Terminal Aerodrome Forecast
Issued by NWS

Home | Current Version | Previous Version | Text Only | Print | Product List | Glossary On
Versions: 1 2 3 4 5 6 7 8 9 10 11 12 13 14 15 16 17
000
FTUS46 KSTO 241700
TAFSAC
TAF
KSAC 241735Z 2418/2518 VRB05KT P6SM SKC
     FM241900 18006KT P6SM SKC
     FM250000 22009KT P6SM SCT250
     FM251000 17011KT P6SM OVC100
      TEMPO 2514/2516 P6SM -RA OVC025=

USA.gov is the U.S. government's official web portal to all federal, state and local government web resources and services.